This demonstration page uses our WeatherBlox Daily Observations layout. Learn more.

Left ArrowRight Arrow

40.92945, -100.16068

Hourly Observations for September 19, 2017

Temp ( °F °C ) Dew Point ( °F °C ) Humidity (%) Winds ( mph kmh ) Pressure ( in mb ) Visibility ( mi km ) Precip ( " mm )
12:15 am 00:15 Clear 66 19 62 16.5 86 86 SE 10 17 29.77 1008 10 16 0.00 0.00
12:35 am 00:35 Clear 65 18.5 61 16.2 87 87 SE 8 13 29.77 1008 7 11 0.00 0.00
12:55 am 00:55 Clear 64 17.7 61 16 90 90 ESE 6 9 29.77 1008 7 11 0.00 0.00
1:15 am 01:15 Clear 64 17.7 61 16.1 90 90 SE 7 11 29.77 1008 7 11 0.00 0.00
1:35 am 01:35 Clear 64 17.5 61 16 91 91 SE 6 9 29.77 1008 7 11 0.00 0.00
1:55 am 01:55 Clear with Mist and Fog 63 17.2 61 16 93 93 SE 6 9 29.77 1008 5 8 0.00 0.00
2:15 am 02:15 Clear with Mist and Fog 63 17 60 15.8 93 93 ESE 6 9 29.74 1007 5 8 0.00 0.00
2:35 am 02:35 Clear with Mist and Fog 63 17 60 15.8 93 93 ESE 6 9 29.74 1007 5 8 0.00 0.00
2:55 am 02:55 Clear with Mist and Fog 62 16.7 60 15.6 93 93 ESE 7 11 29.74 1007 5 8 0.00 0.00
3:15 am 03:15 Clear with Mist and Fog 61 16.1 59 15.1 94 94 SE 7 11 29.74 1007 5 8 0.00 0.00
3:35 am 03:35 Clear 62 16.5 59 15.2 92 92 SE 6 9 29.71 1006 7 11 0.00 0.00
3:55 am 03:55 Clear 61 15.9 58 14.5 91 91 SE 6 9 29.71 1006 7 11 0.00 0.00
4:15 am 04:15 Clear 61 16 59 14.8 93 93 SE 3 6 29.71 1006 7 11 0.00 0.00
4:35 am 04:35 Clear 61 16 58 14.6 91 91 SE 6 9 29.71 1006 10 16 0.00 0.00
4:55 am 04:55 Clear 61 16.2 59 14.8 91 91 ESE 6 9 29.71 1006 10 16 0.00 0.00
5:15 am 05:15 Clear 62 16.4 58 14.6 89 89 E 6 9 29.71 1006 10 16 0.00 0.00
5:35 am 05:35 Clear 60 15.8 58 14.6 93 93 E 7 11 29.68 1005 7 11 0.00 0.00
5:55 am 05:55 Clear 61 16 58 14.7 92 92 ESE 7 11 29.68 1005 7 11 0.00 0.00
6:15 am 06:15 Clear 60 15.3 58 14.2 93 93 SE 6 9 29.68 1005 7 11 0.00 0.00
6:35 am 06:35 Clear 60 15.4 58 14.3 93 93 SE 6 9 29.68 1005 7 11 0.00 0.00
6:55 am 06:55 Clear with Mist and Fog 59 15.1 57 14.1 94 94 SE 5 7 29.68 1005 5 8 0.00 0.00
7:15 am 07:15 Clear 63 17 61 16.1 94 94 SE 9 15 29.62 1003 7 11 0.00 0.00
7:35 am 07:35 Sunny with Mist and Fog 61 15.9 59 14.8 93 93 ESE 7 11 29.65 1004 3 5 0.00 0.00
7:55 am 07:55 Sunny with Mist and Fog 61 16.3 60 15.3 94 94 ESE 7 11 29.65 1004 3 5 0.00 0.00
8:15 am 08:15 Sunny with Mist and Fog 62 16.9 61 15.9 94 94 ESE 6 9 29.62 1003 3 5 0.00 0.00
8:35 am 08:35 Sunny with Mist and Fog 64 17.8 62 16.7 93 93 SE 5 7 29.62 1003 4 6 0.00 0.00
8:55 am 08:55 Sunny with Mist and Fog 68 19.9 65 18.3 91 91 SSE 12 19 29.62 1003 5 8 0.00 0.00
9:15 am 09:15 Partly Cloudy 69 20.7 65 18.2 86 86 SSE 15 24 29.59 1002 7 11 0.00 0.00
9:35 am 09:35 Partly Cloudy 70 21.1 65 18.1 83 83 S 15 24 29.59 1002 10 16 0.00 0.00
9:55 am 09:55 Partly Cloudy 72 22.3 65 18.2 78 78 S 16 26 29.59 1002 10 16 0.00 0.00
10:15 am 10:15 Mostly Cloudy 72 22.3 64 18 77 77 S 16 26 29.59 1002 10 16 0.00 0.00
10:35 am 10:35 Cloudy 72 22.3 64 18 77 77 S 16 26 29.59 1002 10 16 0.00 0.00
10:55 am 10:55 Cloudy 74 23.6 64 18 71 71 SSE 14 22 29.59 1002 10 16 0.00 0.00
11:15 am 11:15 Cloudy 77 25 64 17.9 65 65 S 16 26 29.53 1000 10 16 0.00 0.00
11:35 am 11:35 Partly Cloudy 77 25 64 17.6 64 64 S 13 20 29.53 1000 10 16 0.00 0.00
11:55 am 11:55 Sunny 80 26.5 63 17.3 57 57 S 17 28 29.53 1000 10 16 0.00 0.00
12:15 pm 12:15 Sunny 81 27.1 63 17.2 55 55 S 18 30 29.47 998 10 16 0.00 0.00
12:35 pm 12:35 Sunny 83 28.1 63 17.1 51 51 SSE 15 24 29.47 998 10 16 0.00 0.00
12:55 pm 12:55 Sunny 83 28.4 62 16.4 48 48 SSE 18 30 29.44 997 10 16 0.00 0.00
1:15 pm 13:15 Sunny 84 29 61 16.1 46 46 S 18 30 29.44 997 10 16 0.00 0.00
1:35 pm 13:35 Sunny 86 30.1 60 15.8 42 42 SSE 18 30 29.44 997 10 16 0.00 0.00
1:55 pm 13:55 Sunny 86 30 60 15.4 41 41 SSE 18 30 29.38 995 10 16 0.00 0.00
2:15 pm 14:15 Sunny 87 30.8 60 15.5 40 40 SSE 17 28 29.38 995 10 16 0.00 0.00
2:35 pm 14:35 Sunny 89 31.5 58 14.4 35 35 SSE 21 33 29.35 994 10 16 0.00 0.00
2:55 pm 14:55 Sunny 90 32.4 57 13.7 32 32 SSE 17 28 29.35 994 10 16 0.00 0.00
3:15 pm 15:15 Sunny 89 31.7 55 12.7 31 31 S 18 30 29.35 994 10 16 0.00 0.00
3:35 pm 15:35 Sunny 89 31.7 54 12.4 31 31 S 18 30 29.35 994 10 16 0.00 0.00
3:55 pm 15:55 Sunny 90 32 53 11.5 28 28 S 16 26 29.32 993 10 16 0.00 0.00
4:15 pm 16:15 Sunny 91 32.5 53 11.6 28 28 S 13 20 29.32 993 10 16 0.00 0.00
4:35 pm 16:35 Sunny 92 33.2 51 10.7 25 25 S 12 19 29.26 991 10 16 0.00 0.00
4:55 pm 16:55 Sunny 93 34 49 9.7 22 22 S 12 19 29.26 991 10 16 0.00 0.00
5:15 pm 17:15 Sunny 93 34 45 7.1 19 19 SSW 13 20 29.26 991 10 16 0.00 0.00
5:35 pm 17:35 Sunny 92 33.2 45 7.3 20 20 SSW 8 13 29.26 991 10 16 0.00 0.00
5:55 pm 17:55 Sunny 91 32.5 47 8.1 22 22 SW 8 13 29.29 992 10 16 0.00 0.00
6:15 pm 18:15 Sunny 89 31.5 50 10 26 26 SW 6 9 29.29 992 10 16 0.00 0.00
6:35 pm 18:35 Sunny 87 30.6 52 11.1 30 30 SW 3 6 29.29 992 10 16 0.00 0.00
6:55 pm 18:55 Sunny 87 30.7 53 11.6 31 31 Calm 29.29 992 10 16 0.00 0.00
7:15 pm 19:15 Sunny 82 27.9 58 14.5 44 44 Calm 29.32 993 10 16 0.00 0.00
7:35 pm 19:35 Sunny 79 26.2 54 12.3 42 42 SE 7 11 29.32 993 7 11 0.00 0.00
7:55 pm 19:55 Clear 79 25.9 51 10.7 39 39 S 10 17 29.32 993 10 16 0.00 0.00
8:15 pm 20:15 Clear 74 23.6 51 10.6 44 44 S 8 13 29.35 994 10 16 0.00 0.00
8:35 pm 20:35 Clear 74 23.4 49 9.2 41 41 SSW 8 13 29.38 995 10 16 0.00 0.00
8:55 pm 20:55 Clear 73 22.7 45 7.4 37 37 SSW 9 15 29.38 995 10 16 0.00 0.00
9:15 pm 21:15 Clear 72 22.1 45 7 38 38 S 9 15 29.38 995 10 16 0.00 0.00
9:35 pm 21:35 Clear 72 22.2 45 7.4 39 39 WNW 24 39 29.47 998 10 16 0.00 0.00
9:55 pm 21:55 Clear 70 21.1 43 5.9 37 37 NW 18 30 29.50 999 10 16 0.00 0.00
10:15 pm 22:15 Clear 68 20 42 5.5 39 39 NW 20 31 29.53 1000 10 16 0.00 0.00
10:35 pm 22:35 Clear 68 19.8 43 6.1 41 41 NW 15 24 29.53 1000 10 16 0.00 0.00
10:55 pm 22:55 Clear 67 19.6 44 6.7 43 43 NW 13 20 29.59 1002 10 16 0.00 0.00
11:15 pm 23:15 Clear 66 19 45 7.2 46 46 NW 14 22 29.59 1002 10 16 0.00 0.00
11:35 pm 23:35 Clear 65 18.5 46 7.5 49 49 NNW 13 20 29.62 1003 10 16 0.00 0.00
11:55 pm 23:55 Clear 64 17.7 46 7.5 51 51 NW 10 17 29.62 1003 10 16 0.00 0.00

Powered by AerisWeather